Location: Haliburton Scout Reserve
(45.0900°N, 78.3200°W)
Time: 12:55:06
(UTC-04:00)

JY1SAT - Visible Passes

Search period start: 17 May 2022 00:00
Search period end: 27 May 2022 00:00
Orbit: 566 x 587 km, 97.6° (Epoch: 16 May)

Date Brightness Start Highest point End Pass type
(mag) Time Alt. Az. Time Alt. Az. Time Alt. Az.
17 May ? 21:29:25 10° ESE 21:31:58 16° ENE 21:34:31 10° NNE visible
17 May ? 23:05:21 31° SSW 23:06:51 48° W 23:10:48 10° NNW visible
18 May ? 21:33:02 10° ESE 21:35:46 18° ENE 21:38:31 10° NNE visible
18 May ? 23:09:10 29° SSW 23:10:42 43° W 23:14:37 10° NNW visible
19 May ? 21:36:44 10° ESE 21:39:34 19° ENE 21:42:29 10° NNE visible
19 May ? 23:12:59 27° SW 23:14:34 39° W 23:18:24 10° NNW visible
20 May ? 21:40:32 11° ESE 21:43:21 21° ENE 21:46:26 10° NNE visible
20 May ? 23:16:47 25° SW 23:18:24 35° W 23:22:10 10° NNW visible
21 May ? 21:44:20 12° ESE 21:47:09 23° ENE 21:50:21 10° NNE visible
21 May ? 23:20:35 23° SW 23:22:15 32° W 23:25:56 10° NNW visible
22 May ? 21:48:08 13° ESE 21:50:56 25° ENE 21:54:17 10° NNE visible
22 May ? 23:24:23 22° SW 23:26:05 29° W 23:29:40 10° NW visible
23 May ? 21:51:56 14° ESE 21:54:42 27° ENE 21:58:10 10° N visible
23 May ? 23:28:11 20° SW 23:29:54 27° W 23:33:24 10° NW visible
24 May ? 21:55:43 14° ESE 21:58:29 29° ENE 22:02:02 10° N visible
24 May ? 23:31:57 18° SW 23:33:44 24° W 23:37:06 10° NW visible
25 May ? 21:59:29 15° SE 22:02:15 32° ENE 22:05:54 10° N visible
25 May ? 23:35:45 17° SW 23:37:33 22° W 23:40:48 10° NW visible
26 May ? 22:03:16 16° SE 22:06:01 35° ENE 22:09:45 10° N visible
26 May ? 23:39:31 15° SW 23:41:22 20° W 23:44:28 10° NW visible
